Location: Unspecified
(0.0000°N, 0.0000°E)
Time: 12:10:42
(UTC+00:00)

Tiangong 2 - Pass Details

Date: 23 March 2019
Orbit: 380 x 390 km, 42.8° (Epoch: 24 March)

Event Time Altitude Azimuth Distance (km) Brightness Sun altitude
Rises 18:30:12 0° 192° (SSW) 2,245 5.1 -5.9°
Reaches altitude 10° 18:33:39 10° 151° (SSE) 1,388 3.6 -6.8°
Maximum altitude 18:34:28 11° 136° (SE) 1,345 3.4 -7.0°
Drops below altitude 10° 18:35:16 10° 121° (ESE) 1,386 3.4 -7.2°
Enters shadow 18:36:00 - 109° (ESE) 1,490 3.4 -7.3°
